Vertical_Velocity
-4 -3 -3 -3 0 1 -2 0 3 -1 1 -2 -3 -1 -0 -1 -1 -3 -1 -0 -1 -1 -2 -0 1 1 -1 -8 -3 -1 0 4 1 1 3 0 -1 -1 -1 -1 0 1 -1 1 0 -1 -1
-1 -2 -2 -3 -1 -2 -1 0 0 2 1 3 -1 -2 -1 0 -2 -1 -0 1 -0 -0 -1 -0 -0 2 -3 -12 3 -2 4 3 -1 -1 0 -1 1 2 -1 -0 -2 1 1 1 2 -0 1
1 1 3 -3 -4 -2 -3 0 -0 -0 3 1 2 -2 -2 0 -1 -0 0 1 1 -2 -1 -1 1 -2 -17 11 0 -3 -3 -0 1 -1 -0 2 2 -0 0 -2 1 -1 0 -1 -2 -1 0
1 2 2 -0 2 -1 -1 0 1 -2 1 0 3 1 -2 -2 -1 0 -1 1 -0 -0 -3 0 0 0 -5 7 3 10 3 3 -2 0 2 2 3 2 -5 1 -3 -3 -5 -1 3 -2 4
-1 -1 -1 -0 1 1 1 -1 -0 -2 -1 -1 0 2 -2 -4 1 -0 -0 2 2 -0 1 0 -1 -2 -0 -0 -13 -4 0 -3 1 8 1 5 -10 -3 -12 -3 -4 -4 -0 -1 -5 1 -0
-3 1 -0 -3 -1 2 0 0 -1 0 -2 -1 -0 1 2 -2 1 0 1 2 -1 0 -2 -3 6 -5 -8 2 -4 -2 0 -1 -2 3 -11 -13 -8 -4 -4 -6 -3 -1 -1 -1 0 -2 -3
-0 -1 -2 4 -6 1 -2 -2 0 -0 -1 1 -1 0 2 -1 -2 -0 3 -4 -0 -10 -19 0 8 -3 2 -2 -3 -14 -8 2 -2 -9 -3 -2 -13 0 2 0 -2 -1 -0 -0 -2 -1 -5
-4 -1 0 5 -0 1 -0 1 -5 3 2 -1 -0 -0 -1 1 -1 -2 1 -2 -3 -5 -5 6 3 -1 1 -1 -7 -9 -1 -11 -13 -0 -1 -9 -0 1 -1 -1 -0 -1 -0 -2 -3 -2 -0
1 -3 -6 2 4 3 -4 0 -4 2 1 -3 1 -1 0 -1 0 2 0 -1 -2 -2 -7 -0 -0 -2 -2 -3 -2 -0 -7 2 -3 -4 -0 -4 1 -0 -2 -1 -4 -1 -0 -1 -1 -1 -0
-2 -3 -2 2 -2 1 -0 0 -3 -0 -1 -0 -0 -1 0 -1 -0 -1 -1 -1 -1 -2 -8 -5 -5 -7 -2 1 -3 5 0 5 -4 -1 -0 -0 -1 -1 -1 -0 1 1 0 1 1 -0 -3
-2 -1 2 -3 3 1 -0 -1 -0 -3 1 -4 0 -0 1 -0 -1 -2 0 -1 -1 -5 -6 -2 -0 1 7 -13 3 -16 7 -7 0 1 -8 -3 -1 -1 -1 3 1 -9 2 2 2 2 -2
-1 -2 1 -1 0 1 3 3 0 -3 4 -2 -0 2 -1 -0 -0 -2 0 -0 -2 -11 -8 -1 1 -3 -4 -3 -2 1 -7 -3 2 -2 -3 1 1 -1 -0 -1 0 -2 1 0 -0 -2 -4
0 -0 -0 0 2 -4 2 0 -1 -0 1 -3 -1 3 -1 2 -2 -1 -1 -2 -10 -5 -1 2 -0 -1 -1 -0 -3 -2 -3 -6 -3 -7 -4 -4 -0 -1 -5 -2 -3 -3 -3 -4 -8 -5 -6
1 -3 4 -5 1 -2 -2 0 -2 -2 2 -6 -1 2 1 -1 -0 -0 -1 -6 2 0 -1 0 -1 -1 -2 0 1 0 -0 -1 -3 -3 -1 -1 -12 -2 -1 1 2 -0 0 -2 0 -1 -4
-3 -2 -2 -2 1 -4 0 2 0 1 2 -1 0 -0 0 0 0 1 -1 -3 -1 -2 -4 -1 0 -2 0 -1 -3 -3 -0 0 1 0 -9 -2 -5 -3 -0 -0 -1 -4 -3 -1 2 -1 1
0 -1 -1 -1 3 -1 -1 -0 3 1 1 -2 -2 0 -0 0 0 2 -8 -1 -1 -1 -1 -1 -2 -3 -1 -1 -1 -3 -1 -1 0 -0 1 -3 -7 -1 -3 1 -0 -7 -3 -6 -4 -1 -1
1 0 3 -1 -2 -4 3 1 6 -1 -1 -2 -3 1 0 2 2 -2 -4 -1 0 2 -2 -2 -1 -1 -1 -2 -1 0 0 2 -0 -1 -0 -1 -7 -11 -4 -2 1 -4 -3 -5 -6 -1 1
0 2 -9 5 -1 1 2 1 1 2 -2 3 -2 -2 2 3 -11 0 -1 -3 -0 1 2 -1 -4 -2 -2 -0 -0 -0 -2 -2 0 -0 -1 -2 -4 -1 0 2 -0 -1 -2 -3 -5 -8 -1
-1 2 -2 5 -2 -1 -1 -1 4 2 1 1 -2 -0 0 1 -4 0 2 1 -1 -0 0 0 -0 -2 -0 -1 -7 -1 0 2 -0 -1 -3 -6 -2 -4 -5 -8 1 -2 0 -1 -1 -2 -3
-5 -3 1 2 -4 -6 -2 2 2 2 1 0 0 -3 -1 -1 -0 -5 -1 1 1 0 -0 -0 -1 -2 -2 0 -1 -3 1 2 -0 -1 0 -1 -1 -8 -10 -8 -3 -0 0 0 -2 -2 -3
1 1 -4 -3 -1 -5 -6 3 -1 3 -2 1 -1 -1 0 -3 0 -0 -2 -2 0 1 -0 0 1 -1 -4 -2 -0 0 0 1 0 0 -0 -5 -3 -0 -0 -0 -0 -1 -0 -0 0 -3 -5
2 -1 1 -4 -4 -2 -1 3 3 -0 -1 3 -0 -6 -1 -0 1 -2 -1 -2 -2 2 -7 1 -2 0 -1 -5 -9 -4 -4 -2 -5 1 -1 -1 -3 -1 -2 0 -0 -0 -0 0 -0 0 0
5 1 -1 -2 -3 -2 -2 -3 -1 4 1 1 0 1 0 1 1 -3 -4 -2 -1 -4 -0 1 -5 -3 0 -1 -2 3 0 -0 -2 -5 -0 -3 -3 -3 -3 -0 -2 -7 -6 -1 -1 -0 -6
8 3 1 -2 -1 -1 -2 -5 -4 -1 2 1 -0 0 -1 -2 -0 -2 -1 -1 -1 -0 -8 1 -0 -5 4 2 -3 -3 -4 -1 -1 0 1 -2 -2 -2 -2 -4 -9 -16 -0 -2 -2 -2 0
6 4 -0 3 -2 -3 -2 0 -2 1 3 -0 2 -0 -3 -1 -1 2 2 -1 1 3 -2 -2 1 1 -2 -5 -5 -3 -4 -6 -2 0 -1 -1 -3 -3 -6 -1 -13 -4 -1 -6 -8 -12 -2
6 3 1 2 0 -1 -1 -1 0 1 0 0 4 3 -1 -12 -7 -2 -2 -1 -2 0 -3 2 4 6 2 -2 -2 -2 -3 -5 -1 -2 0 -1 -2 -8 -1 -3 -4 -10 -1 1 -3 -12 -3
8 3 4 0 -2 -0 5 -3 1 0 1 2 2 3 -2 -3 -0 -1 -3 -9 1 1 -3 1 1 2 3 -0 -1 -2 -3 -3 -5 -2 -0 -1 -2 -4 0 -2 -13 -3 -1 -1 -19 -30 -3
2 6 4 1 1 3 -4 -1 -1 3 -1 3 3 1 -2 -1 1 0 0 -4 0 2 -4 4 -7 1 1 0 -2 -2 -1 -3 -2 -4 -5 -7 -7 -1 -2 -2 -14 -3 -0 -12 -15 2 -0
2 1 5 3 3 -1 -4 4 -4 4 0 5 1 1 -0 0 -1 1 1 1 -0 1 -4 5 1 -3 -5 -3 -0 -1 0 1 -2 -3 -1 -9 -11 -11 -14 -18 -1 -8 2 0 -1 -2 -1
Height
1522 1520 1519 1516 1515 1514 1513 1511 1509 1507 1505 1502 1500 1497 1494 1492 1490 1487 1485 1483 1480 1478 1478 1479 1482 1482 1482 1484 1492 1489 1486 1484 1484 1484 1484 1484 1485 1487 1489 1491 1492 1493 1492 1493 1493 1494 1495
1521 1519 1518 1516 1515 1515 1514 1512 1510 1508 1505 1502 1499 1497 1495 1492 1490 1488 1487 1485 1483 1483 1483 1484 1484 1484 1484 1490 1494 1489 1487 1485 1484 1483 1484 1485 1486 1487 1488 1490 1493 1492 1493 1493 1494 1495 1496
1521 1519 1517 1516 1515 1514 1514 1513 1511 1508 1505 1503 1499 1496 1494 1492 1490 1489 1488 1487 1487 1487 1487 1487 1487 1485 1484 1499 1494 1490 1487 1485 1483 1483 1484 1485 1486 1488 1490 1490 1491 1491 1493 1493 1498 1499 1501
1521 1519 1517 1515 1514 1514 1513 1513 1511 1509 1506 1503 1500 1496 1494 1493 1491 1489 1488 1488 1489 1489 1489 1489 1489 1487 1494 1499 1495 1489 1486 1484 1482 1483 1485 1486 1486 1489 1491 1492 1491 1494 1496 1502 1502 1501 1502
1520 1519 1517 1516 1515 1514 1513 1512 1511 1508 1506 1503 1501 1497 1494 1493 1492 1490 1489 1490 1491 1490 1491 1491 1491 1490 1499 1500 1491 1490 1487 1482 1482 1483 1485 1487 1487 1494 1495 1498 1505 1506 1515 1512 1509 1508 1505
1519 1517 1516 1516 1515 1514 1513 1511 1510 1508 1506 1503 1501 1497 1494 1492 1492 1491 1491 1491 1491 1492 1492 1492 1493 1497 1504 1504 1498 1494 1490 1484 1482 1483 1485 1489 1495 1504 1508 1509 1527 1524 1520 1514 1511 1510 1513
1518 1517 1515 1514 1515 1514 1512 1511 1509 1507 1505 1503 1499 1497 1493 1491 1490 1490 1490 1492 1494 1496 1497 1502 1505 1505 1507 1506 1502 1496 1491 1486 1483 1486 1497 1500 1509 1520 1519 1516 1520 1524 1526 1527 1513 1508 1514
1518 1516 1515 1514 1512 1513 1511 1511 1509 1507 1504 1501 1499 1496 1493 1490 1488 1488 1488 1489 1490 1497 1503 1506 1506 1506 1508 1506 1503 1501 1497 1495 1497 1502 1501 1510 1519 1518 1517 1519 1519 1519 1530 1523 1513 1509 1509
1516 1515 1514 1514 1512 1510 1510 1509 1507 1506 1504 1500 1497 1494 1492 1489 1488 1488 1487 1488 1490 1493 1499 1508 1508 1509 1511 1509 1510 1507 1503 1502 1503 1508 1511 1515 1522 1518 1518 1522 1521 1520 1526 1518 1521 1510 1507
1514 1514 1512 1512 1511 1510 1509 1507 1505 1504 1502 1499 1496 1494 1491 1488 1490 1487 1488 1489 1491 1493 1503 1513 1511 1512 1511 1509 1512 1511 1507 1506 1508 1515 1514 1520 1521 1520 1522 1525 1528 1522 1515 1515 1513 1516 1520
1512 1512 1511 1510 1510 1509 1507 1506 1504 1502 1500 1498 1495 1493 1491 1487 1488 1487 1489 1489 1492 1495 1504 1516 1513 1516 1515 1514 1516 1516 1513 1511 1514 1517 1516 1525 1523 1523 1526 1528 1526 1524 1516 1513 1509 1510 1516
1510 1509 1509 1508 1508 1508 1507 1504 1502 1500 1499 1496 1494 1492 1490 1488 1487 1487 1487 1489 1494 1499 1514 1514 1514 1517 1516 1518 1518 1519 1515 1514 1517 1517 1519 1524 1523 1524 1526 1525 1523 1520 1517 1510 1509 1518 1545
1507 1506 1505 1506 1506 1505 1505 1504 1502 1499 1497 1495 1494 1492 1489 1487 1487 1487 1489 1492 1499 1498 1515 1516 1516 1517 1519 1523 1522 1524 1527 1527 1530 1531 1535 1527 1525 1525 1527 1527 1522 1522 1525 1529 1526 1528 1524
1504 1504 1503 1503 1503 1503 1501 1501 1499 1497 1495 1493 1491 1491 1488 1487 1486 1487 1489 1494 1489 1508 1512 1513 1514 1516 1522 1525 1526 1527 1529 1535 1535 1536 1543 1544 1533 1529 1530 1531 1532 1527 1525 1541 1542 1535 1519
1500 1500 1501 1500 1500 1501 1500 1498 1495 1495 1494 1491 1490 1489 1488 1486 1486 1486 1489 1497 1498 1506 1508 1511 1514 1518 1526 1525 1526 1530 1537 1538 1540 1540 1552 1556 1541 1531 1530 1531 1531 1530 1532 1535 1535 1530 1526
1496 1496 1497 1497 1497 1498 1498 1495 1492 1494 1492 1490 1489 1488 1487 1486 1485 1486 1490 1500 1506 1505 1507 1508 1510 1517 1525 1528 1529 1530 1535 1539 1540 1540 1540 1549 1561 1534 1531 1531 1532 1536 1540 1543 1542 1543 1529
1491 1492 1493 1492 1494 1493 1495 1492 1490 1491 1490 1488 1487 1487 1486 1485 1485 1486 1496 1503 1504 1505 1506 1509 1511 1518 1524 1528 1528 1531 1537 1539 1538 1538 1538 1541 1549 1540 1532 1543 1545 1541 1555 1558 1563 1559 1536
1487 1488 1489 1490 1489 1490 1493 1489 1489 1489 1488 1487 1485 1487 1484 1484 1489 1494 1499 1499 1502 1505 1506 1508 1510 1514 1521 1527 1528 1528 1532 1533 1535 1536 1541 1540 1548 1550 1545 1548 1546 1550 1565 1575 1566 1554 1551
1481 1483 1485 1487 1485 1487 1489 1488 1486 1486 1485 1485 1484 1482 1482 1483 1491 1498 1499 1500 1502 1504 1507 1508 1511 1512 1518 1524 1538 1528 1532 1535 1534 1536 1540 1539 1548 1561 1545 1555 1548 1555 1559 1564 1573 1573 1571
1476 1477 1479 1481 1480 1483 1486 1485 1484 1484 1483 1484 1484 1482 1481 1481 1484 1487 1495 1500 1503 1504 1507 1508 1512 1514 1520 1524 1528 1536 1532 1534 1534 1535 1536 1536 1557 1551 1557 1547 1554 1559 1554 1556 1562 1579 1573
1469 1471 1473 1475 1475 1479 1482 1482 1481 1481 1482 1482 1481 1480 1481 1486 1485 1486 1489 1494 1499 1503 1505 1507 1512 1513 1522 1537 1528 1529 1531 1534 1534 1535 1537 1539 1553 1550 1553 1556 1555 1557 1553 1556 1558 1562 1564
1463 1465 1467 1469 1472 1473 1477 1478 1478 1479 1479 1479 1478 1478 1482 1484 1483 1486 1491 1495 1494 1501 1502 1505 1510 1512 1516 1526 1522 1531 1532 1535 1534 1536 1540 1543 1558 1557 1561 1552 1552 1558 1554 1557 1555 1556 1560
1456 1458 1461 1464 1467 1468 1470 1473 1474 1476 1476 1474 1473 1474 1476 1485 1485 1487 1487 1489 1490 1494 1503 1502 1504 1511 1516 1516 1518 1521 1526 1528 1529 1537 1546 1553 1558 1566 1572 1554 1560 1562 1547 1544 1548 1552 1553
1451 1453 1455 1458 1460 1462 1463 1466 1470 1472 1471 1471 1470 1472 1474 1480 1482 1481 1482 1484 1489 1493 1500 1503 1505 1509 1514 1515 1519 1524 1527 1530 1532 1536 1539 1556 1563 1569 1572 1572 1574 1535 1540 1540 1542 1539 1540
1445 1447 1449 1451 1454 1456 1458 1461 1465 1467 1466 1466 1467 1469 1469 1478 1477 1480 1481 1484 1490 1494 1499 1503 1506 1508 1511 1515 1527 1537 1536 1537 1535 1539 1540 1542 1556 1572 1563 1579 1544 1536 1535 1539 1541 1528 1521
1439 1440 1443 1446 1448 1450 1453 1456 1461 1462 1462 1463 1463 1464 1466 1469 1473 1472 1479 1483 1489 1497 1502 1505 1508 1510 1512 1516 1525 1536 1531 1527 1540 1541 1542 1544 1546 1551 1584 1570 1552 1521 1524 1526 1530 1540 1508
1431 1434 1438 1442 1443 1446 1449 1452 1457 1458 1458 1459 1458 1460 1463 1465 1467 1470 1473 1478 1480 1487 1496 1502 1507 1512 1512 1517 1526 1529 1527 1533 1529 1530 1536 1548 1559 1556 1568 1573 1538 1516 1520 1526 1542 1516 1500
1427 1431 1434 1437 1439 1442 1445 1450 1453 1455 1454 1456 1456 1458 1462 1462 1464 1466 1468 1469 1474 1479 1485 1494 1504 1507 1512 1515 1515 1514 1523 1523 1526 1522 1521 1523 1543 1552 1574 1571 1530 1509 1522 1521 1497 1494 1498
1424 1429 1432 1433 1436 1440 1444 1448 1451 1451 1451 1453 1454 1456 1459 1461 1464 1465 1467 1469 1472 1475 1478 1482 1483 1483 1489 1499 1505 1510 1511 1523 1519 1511 1519 1520 1508 1512 1512 1503 1489 1490 1485 1488 1490 1492 1495